Location: Eaton Estates
(41.3089°N, 82.0057°W)
Time: 13:27:45
(UTC+00:00)

Cosmos 2221 - Pass Details

Date: 17 June 2021
Orbit: 591 x 616 km, 82.5° (Epoch: 30 July)

Event Time Altitude Azimuth Distance (km) Brightness Sun altitude
Rises 06:11:23 0° 6° (N) 2,862 7.4 -24.6°
Reaches altitude 10° 06:14:04 10° 22° (NNE) 1,949 6.1 -24.5°
Maximum altitude 06:17:22 21° 73° (ENE) 1,348 4.6 -24.3°
Enters shadow 06:18:55 18° 102° (ESE) 1,496 4.5 -24.3°
